CZ-6A DEB, 61114

Orbit data source: Space-Track

CZ-6A DEB, 61114 is space debris in LEO originally from a launch on Tue, 06 Aug 2024 UTC launched from the Taiyaun Space Center, China (TSC). Debris objects in space refer to the collection of defunct objects orbiting the Earth. Examples of debris include non-operational satellites, rocket bodies, and fragments generated from explosions, collisions, or faulty payload assembly.

Loading next visibility...
Identifier
61114, 2024-140PG
Orbit
LEO
Country
Flag of CNCN / PRC
Related business
Manufacturer
SAST
Mission
Spacecraft
Bus & Motor
Unknown
Mass
Unknown
Launch date (UTC)
2024-08-06 (2 years ago)
Launch vehicle
Unknown
Launch site
Taiyaun Space Center, China (TSC)
Object type
Payload
Rocket body
Debris
Shape & HBR
Unknown shape, 0.1 m
Radar Cross Section
Small (<0.1 m²)

Expand to show TLE details & history
Last TLE update: 16 hours ago

TLE from 16 hours ago
0 CZ-6A DEB
1 61114U 24140PG  26129.88573241  .00003274  00000-0  93914-3 0  9997
2 61114  88.9709 274.5203 0046991 116.9273 243.6743 14.44104626 90366
Epoch: 2026-05-09T21:15Z
TLE epoch observation values (Epoch: 2026-05-09T21:15:27.280Z)
Latitude
-0.00001°
Longitude
87.95989°
Altitude
763.03 km
Speed
7.465 km/s
True Right ascension
18h 18m 04s
True Declination
0° 00' 00"
Sunlit
Object was in full shadow at epoch
Visualization orbit readout
Latitude
Unknown
Longitude
Unknown
Altitude
Unknown
Speed
Unknown
Apparent Right ascension
Unknown
Apparent Declination
Unknown
Sunlit
N/A
Visualization observer readout
Local Sidereal Time
21:25:02
Azimuth
Unknown
Elevation
Unknown
Doppler factor
Unknown
Orbital elements
Apogee altitude
775.343 km
Perigee altitude
708.428 km
Semi-major axis
7,120.023 km
Eccentricity
0.0047
Inclination
88.9709°
RAAN
274.5203°
Arg. of periapsis
116.9273°
True anomaly
243.19293°
Mean anomaly
243.6743°
Eccentric anomaly
243.43349°
Mean motion
3.61261 °/min
Orbital period
99.65 mins
BSTAR
0.00093914
Loading maneuver chart data...
Computing Atmospheric mass density...
Loading historical data...
Loading historical data...
Loading historical data...
Loading historical data...
Loading historical data...
Loading historical data...
Loading historical data...

Documentation

Showing up to 5 results
|